Weather in Karakoga

Kazakhstan     54°54′01″N   70°48′55″E
temp.,
°C
wind,
m/s
gust,
m/s
humid.,
%
clouds,
%
prec.,
mm/h
press.,
hPa
HPBL,
m
20 april, tue
tue2000:00−4nne36485 0.0 1032300
03:00−5ne24490 0.0 1032427
06:00−5nne23530 0.0 1033206
09:00−4n23415 0.0 10341055
12:00−1nw33320 0.0 10331316
15:00+2w45285 0.0 10301488
18:00+2wnw56325 0.0 10291423
21:00−1wsw47525 0.0 1028129
21 april, wed
wed2100:00−1wsw5125550 0.0 1027258
03:000w6145496 0.0 1025375
06:000w6136289 0.0 1025324
09:00+3nnw596479 0.0 1026487
12:00+6n685891 0.0 10261452
15:00+6n675380 0.0 10291257
18:00+8n673914 0.0 10301751
21:00+4ne37595 0.0 1033157
22 april, thu
thu2200:00+1ene38710 0.0 1035199
03:00−1ene24750 0.0 103779
06:00−1e34784 0.0 1039114
09:00+2ese34635 0.0 1041661
12:00+5ese22455 0.0 10421149
15:00+7ese33375 0.0 10421241
18:00+8se33345 0.0 10421348
21:00+5se36480 0.0 1043108
23 april, fri
fri2300:00+2se48570 0.0 1043158
03:00+1sse39640 0.0 1043167
06:000sse49700 0.0 1043179
09:00+4sse69525 0.0 1043504
12:00+8s563835 0.0 10421171
15:00+10s563258 0.0 10401464
18:00+11sse56305 0.0 10391603
21:00+7se4104857 0.0 1039188
24 april, sat
sat2400:00+5sse5135065 0.0 1038299
03:00+3sse5125811 0.0 1037267
06:00+2sse51162100 0.0 1037227
09:00+6sse6104783 0.0 1036406
12:00+10sse6833100 0.0 10341142
15:00+12sse672894 0.0 10331604
18:00+12sse672647 0.0 10311783
21:00+8se41140100 0.0 1030216